Location: Chicago
(41.8500°N, 87.6500°W)
Time: 02:25:02
(UTC-05:00)

ISS - Visible Passes

Search period start: 16 September 2014 00:00
Search period end: 26 September 2014 00:00
Orbit: 414 x 417 km, 51.6° (Epoch: 16 September)

Date Brightness Start Highest point End Pass type
(mag) Time Alt. Az. Time Alt. Az. Time Alt. Az.
16 Sep -0.5 03:56:32 18° E 03:56:32 18° E 03:57:37 10° ENE visible
16 Sep -2.3 05:29:25 19° W 05:31:17 34° NNW 05:34:23 10° NE visible
17 Sep -2.7 04:42:47 50° N 04:42:47 50° N 04:45:46 10° NE visible
18 Sep -0.4 03:56:03 18° NE 03:56:03 18° NE 03:57:03 10° NE visible
18 Sep -1.4 05:28:56 14° WNW 05:30:48 21° NNW 05:33:25 10° NE visible
19 Sep -1.6 04:42:08 26° NNW 04:42:08 26° NNW 04:44:44 10° NE visible
20 Sep -0.2 03:55:16 15° NE 03:55:16 15° NE 03:56:01 10° NE visible
20 Sep -0.9 05:28:09 10° NW 05:30:18 16° N 05:32:28 10° NNE visible
21 Sep -1.1 04:41:15 18° N 04:41:15 18° N 04:43:35 10° NNE visible
22 Sep 0.0 03:54:18 12° NNE 03:54:18 12° NNE 03:54:45 10° NE visible
22 Sep -0.7 05:27:37 10° NW 05:29:41 15° N 05:31:46 10° NE visible
23 Sep -0.8 04:40:13 15° N 04:40:29 15° N 04:42:33 10° NE visible
24 Sep 0.1 03:53:15 11° NNE 03:53:15 11° NNE 03:53:28 10° NNE visible
24 Sep -0.9 05:26:30 10° NNW 05:28:54 18° NNE 05:31:18 10° ENE visible
25 Sep -0.8 04:39:09 16° N 04:39:39 16° N 04:41:49 10° NE visible
